Retour au catalogue

COSMOS 1230

ActifNavigationLEO
NORAD 12109·PAYLOAD·🇷🇺 Russia

Lancé Dec 23, 1980 depuis Plesetsk Cosmodrome

Loading…

Prochains Passages (prochaines 24 heures)

TLE

FraisSource: Space-Track

Époque: Sep 14, 2026, 14:50 UTC

1 12109U 80102C   26257.61865566 -.00000012  00000-0  27261-4 0  9995
2 12109  73.9946 196.0265 0042090 248.4542 286.5654 12.57926759 99687

Suivez COSMOS 1230 en temps réel avec AllMySat

Download on the App Store